Year,Month,Day,Hour,Minute,Value (Times are PST for temperature in C)
2007,11,01,00,00,4.70
2007,11,01,00,01,4.70
2007,11,01,00,02,4.60
2007,11,01,00,03,4.50
2007,11,01,00,04,4.40
2007,11,01,00,05,4.30
2007,11,01,00,06,4.30
2007,11,01,00,07,4.30
2007,11,01,00,08,4.30
2007,11,01,00,09,4.20
2007,11,01,00,10,4.20
2007,11,01,00,11,4.20
2007,11,01,00,12,4.20
2007,11,01,00,13,4.20
2007,11,01,00,14,4.20
2007,11,01,00,15,4.20
2007,11,01,00,16,4.10
2007,11,01,00,17,4.10
2007,11,01,00,18,4.00
2007,11,01,00,19,4.00
2007,11,01,00,20,3.90
2007,11,01,00,21,3.90
2007,11,01,00,22,3.90
2007,11,01,00,23,3.90
2007,11,01,00,24,3.90
2007,11,01,00,25,3.90
2007,11,01,00,26,3.90
2007,11,01,00,27,3.80
2007,11,01,00,28,3.80
2007,11,01,00,29,3.80
2007,11,01,00,30,3.80
2007,11,01,00,31,3.70
2007,11,01,00,32,3.70
2007,11,01,00,33,3.70
2007,11,01,00,34,3.70
2007,11,01,00,35,3.60
2007,11,01,00,36,3.60
2007,11,01,00,37,3.50
2007,11,01,00,38,3.50
2007,11,01,00,39,3.40
2007,11,01,00,40,3.40
2007,11,01,00,41,3.40
2007,11,01,00,42,3.40
2007,11,01,00,43,3.30
2007,11,01,00,44,3.30
2007,11,01,00,45,3.30
2007,11,01,00,46,3.30
2007,11,01,00,47,3.30
2007,11,01,00,48,3.20
2007,11,01,00,49,3.20
2007,11,01,00,50,3.20
2007,11,01,00,51,3.20
2007,11,01,00,52,3.20
2007,11,01,00,53,3.20
2007,11,01,00,54,3.20
2007,11,01,00,55,3.20
2007,11,01,00,56,3.20
2007,11,01,00,57,3.10
2007,11,01,00,58,3.10
2007,11,01,00,59,3.10
2007,11,01,01,00,3.10
2007,11,01,01,01,3.10
2007,11,01,01,02,3.00
2007,11,01,01,03,3.00
2007,11,01,01,04,3.00
2007,11,01,01,05,3.00
2007,11,01,01,06,3.00
2007,11,01,01,07,3.00
2007,11,01,01,08,2.90
2007,11,01,01,09,2.90
2007,11,01,01,10,2.90
2007,11,01,01,11,2.90
2007,11,01,01,12,2.90
2007,11,01,01,13,2.90
2007,11,01,01,14,2.90
2007,11,01,01,15,2.90
2007,11,01,01,16,2.80
2007,11,01,01,17,2.80
2007,11,01,01,18,2.90
2007,11,01,01,19,3.00
2007,11,01,01,20,3.00
2007,11,01,01,21,3.10
2007,11,01,01,22,3.10
2007,11,01,01,23,3.20
2007,11,01,01,24,3.20
2007,11,01,01,25,3.30
2007,11,01,01,26,3.30
2007,11,01,01,27,3.40
2007,11,01,01,28,3.60
2007,11,01,01,29,3.70
2007,11,01,01,30,3.80
2007,11,01,01,31,4.00
2007,11,01,01,32,4.10
2007,11,01,01,33,4.20
2007,11,01,01,34,4.30
2007,11,01,01,35,4.30
2007,11,01,01,36,4.40
2007,11,01,01,37,4.40
2007,11,01,01,38,4.40
2007,11,01,01,39,4.50
2007,11,01,01,40,4.50
2007,11,01,01,41,4.50
2007,11,01,01,42,4.50
2007,11,01,01,43,4.60
2007,11,01,01,44,4.60
2007,11,01,01,45,4.60
2007,11,01,01,46,4.70
2007,11,01,01,47,4.70
2007,11,01,01,48,4.80
2007,11,01,01,49,4.80
2007,11,01,01,50,4.90
2007,11,01,01,51,4.90
2007,11,01,01,52,5.00
2007,11,01,01,53,5.00
2007,11,01,01,54,5.10
2007,11,01,01,55,5.10
2007,11,01,01,56,5.20
2007,11,01,01,57,5.20
2007,11,01,01,58,5.20
2007,11,01,01,59,5.30
2007,11,01,02,00,5.30
2007,11,01,02,01,5.30
2007,11,01,02,02,5.30
2007,11,01,02,03,5.30
2007,11,01,02,04,5.40
2007,11,01,02,05,5.40
2007,11,01,02,06,5.40
2007,11,01,02,07,5.50
2007,11,01,02,08,5.60
2007,11,01,02,09,5.60
2007,11,01,02,10,5.70
2007,11,01,02,11,5.80
2007,11,01,02,12,5.90
2007,11,01,02,13,6.00
2007,11,01,02,14,6.10
2007,11,01,02,15,6.20
2007,11,01,02,16,6.30
2007,11,01,02,17,6.30
2007,11,01,02,18,6.40
2007,11,01,02,19,6.50
2007,11,01,02,20,6.60
2007,11,01,02,21,6.60
2007,11,01,02,22,6.70
2007,11,01,02,23,6.70
2007,11,01,02,24,6.80
2007,11,01,02,25,6.80
2007,11,01,02,26,6.80
2007,11,01,02,27,6.80
2007,11,01,02,28,6.90
2007,11,01,02,29,6.90
2007,11,01,02,30,6.90
2007,11,01,02,31,6.90
2007,11,01,02,32,7.00
2007,11,01,02,33,7.00
2007,11,01,02,34,7.00
2007,11,01,02,35,7.00
2007,11,01,02,36,7.10
2007,11,01,02,37,7.10
2007,11,01,02,38,7.10
2007,11,01,02,39,7.10
2007,11,01,02,40,7.10
2007,11,01,02,41,7.10
2007,11,01,02,42,7.10
2007,11,01,02,43,7.20
2007,11,01,02,44,7.10
2007,11,01,02,45,7.10
2007,11,01,02,46,7.10
2007,11,01,02,47,7.10
2007,11,01,02,48,7.10
2007,11,01,02,49,7.00
2007,11,01,02,50,7.00
2007,11,01,02,51,7.00
2007,11,01,02,52,7.00
2007,11,01,02,53,6.90
2007,11,01,02,54,6.90
2007,11,01,02,55,6.90
2007,11,01,02,56,6.90
2007,11,01,02,57,6.90
2007,11,01,02,58,6.90
2007,11,01,02,59,6.80
2007,11,01,03,00,6.80
2007,11,01,03,01,6.80
2007,11,01,03,02,6.80
2007,11,01,03,03,6.80
2007,11,01,03,04,6.80
2007,11,01,03,05,6.90
2007,11,01,03,06,6.90
2007,11,01,03,07,7.00
2007,11,01,03,08,7.00
2007,11,01,03,09,7.10
2007,11,01,03,10,7.10
2007,11,01,03,11,7.20
2007,11,01,03,12,7.20
2007,11,01,03,13,7.20
2007,11,01,03,14,7.20
2007,11,01,03,15,7.30
2007,11,01,03,16,7.30
2007,11,01,03,17,7.40
2007,11,01,03,18,7.40
2007,11,01,03,19,7.40
2007,11,01,03,20,7.40
2007,11,01,03,21,7.50
2007,11,01,03,22,7.40
2007,11,01,03,23,7.50
2007,11,01,03,24,7.50
2007,11,01,03,25,7.50
2007,11,01,03,26,7.50
2007,11,01,03,27,7.40
2007,11,01,03,28,7.40
2007,11,01,03,29,7.40
2007,11,01,03,30,7.40
2007,11,01,03,31,7.40
2007,11,01,03,32,7.40
2007,11,01,03,33,7.40
2007,11,01,03,34,7.40
2007,11,01,03,35,7.40
2007,11,01,03,36,7.30
2007,11,01,03,37,7.30
2007,11,01,03,38,7.30
2007,11,01,03,39,7.30
2007,11,01,03,40,7.30
2007,11,01,03,41,7.30
2007,11,01,03,42,7.30
2007,11,01,03,43,7.30
2007,11,01,03,44,7.30
2007,11,01,03,45,7.30
2007,11,01,03,46,7.30
2007,11,01,03,47,7.30
2007,11,01,03,48,7.30
2007,11,01,03,49,7.30
2007,11,01,03,50,7.30
2007,11,01,03,51,7.20
2007,11,01,03,52,7.20
2007,11,01,03,53,7.20
2007,11,01,03,54,7.20
2007,11,01,03,55,7.20
2007,11,01,03,56,7.20
2007,11,01,03,57,7.20
2007,11,01,03,58,7.20
2007,11,01,03,59,7.20
2007,11,01,04,00,7.10
2007,11,01,04,01,7.10
2007,11,01,04,02,7.10
2007,11,01,04,03,7.10
2007,11,01,04,04,7.00
2007,11,01,04,05,7.00
2007,11,01,04,06,7.00
2007,11,01,04,07,6.90
2007,11,01,04,08,6.90
2007,11,01,04,09,6.90
2007,11,01,04,10,6.90
2007,11,01,04,11,6.90
2007,11,01,04,12,6.80
2007,11,01,04,13,6.80
2007,11,01,04,14,6.80
2007,11,01,04,15,6.80
2007,11,01,04,16,6.80
2007,11,01,04,17,6.80
2007,11,01,04,18,6.70
2007,11,01,04,19,6.70
2007,11,01,04,20,6.70
2007,11,01,04,21,6.60
2007,11,01,04,22,6.60
2007,11,01,04,23,6.60
2007,11,01,04,24,6.60
2007,11,01,04,25,6.60
2007,11,01,04,26,6.50
2007,11,01,04,27,6.50
2007,11,01,04,28,6.50
2007,11,01,04,29,6.50
2007,11,01,04,30,6.50
2007,11,01,04,31,6.50
2007,11,01,04,32,6.50
2007,11,01,04,33,6.40
2007,11,01,04,34,6.40
2007,11,01,04,35,6.40
2007,11,01,04,36,6.40
2007,11,01,04,37,6.40
2007,11,01,04,38,6.40
2007,11,01,04,39,6.40
2007,11,01,04,40,6.40
2007,11,01,04,41,6.40
2007,11,01,04,42,6.40
2007,11,01,04,43,6.40
2007,11,01,04,44,6.40
2007,11,01,04,45,6.40
2007,11,01,04,46,6.40
2007,11,01,04,47,6.40
2007,11,01,04,48,6.40
2007,11,01,04,49,6.40
2007,11,01,04,50,6.40
2007,11,01,04,51,6.40
2007,11,01,04,52,6.30
2007,11,01,04,53,6.30
2007,11,01,04,54,6.30
2007,11,01,04,55,6.30
2007,11,01,04,56,6.30
2007,11,01,04,57,6.20
2007,11,01,04,58,6.20
2007,11,01,04,59,6.20
2007,11,01,05,00,6.10
2007,11,01,05,01,6.10
2007,11,01,05,02,6.10
2007,11,01,05,03,6.10
2007,11,01,05,04,6.10
2007,11,01,05,05,6.00
2007,11,01,05,06,6.00
2007,11,01,05,07,6.00
2007,11,01,05,08,6.00
2007,11,01,05,09,5.90
2007,11,01,05,10,5.90
2007,11,01,05,11,5.90
2007,11,01,05,12,5.90
2007,11,01,05,13,5.90
2007,11,01,05,14,5.90
2007,11,01,05,15,5.90
2007,11,01,05,16,5.90
2007,11,01,05,17,5.90
2007,11,01,05,18,5.80
2007,11,01,05,19,5.80
2007,11,01,05,20,5.80
2007,11,01,05,21,5.70
2007,11,01,05,22,5.70
2007,11,01,05,23,5.70
2007,11,01,05,24,5.70
2007,11,01,05,25,5.70
2007,11,01,05,26,5.70
2007,11,01,05,27,5.70
2007,11,01,05,28,5.70
2007,11,01,05,29,5.70
2007,11,01,05,30,5.70
2007,11,01,05,31,5.70
2007,11,01,05,32,5.70
2007,11,01,05,33,5.70
2007,11,01,05,34,5.70
2007,11,01,05,35,5.70
2007,11,01,05,36,5.70
2007,11,01,05,37,5.70
2007,11,01,05,38,5.70
2007,11,01,05,39,5.70
2007,11,01,05,40,5.60
2007,11,01,05,41,5.60
2007,11,01,05,42,5.60
2007,11,01,05,43,5.60
2007,11,01,05,44,5.50
2007,11,01,05,45,5.50
2007,11,01,05,46,5.40
2007,11,01,05,47,5.40
2007,11,01,05,48,5.40
2007,11,01,05,49,5.40
2007,11,01,05,50,5.30
2007,11,01,05,51,5.30
2007,11,01,05,52,5.30
2007,11,01,05,53,5.30
2007,11,01,05,54,5.30
2007,11,01,05,55,5.30
2007,11,01,05,56,5.30
2007,11,01,05,57,5.30
2007,11,01,05,58,5.30
2007,11,01,05,59,5.30
2007,11,01,06,00,5.20
2007,11,01,06,01,5.20
2007,11,01,06,02,5.20
2007,11,01,06,03,5.10
2007,11,01,06,04,5.00
2007,11,01,06,05,5.00
2007,11,01,06,06,4.90
2007,11,01,06,07,4.90
2007,11,01,06,08,4.90
2007,11,01,06,09,4.90
2007,11,01,06,10,4.90
2007,11,01,06,11,4.90
2007,11,01,06,12,4.90
2007,11,01,06,13,5.00
2007,11,01,06,14,5.00
2007,11,01,06,15,5.00
2007,11,01,06,16,5.10
2007,11,01,06,17,5.10
2007,11,01,06,18,5.10
2007,11,01,06,19,5.10
2007,11,01,06,20,5.10
2007,11,01,06,21,5.10
2007,11,01,06,22,5.10
2007,11,01,06,23,5.10
2007,11,01,06,24,5.10
2007,11,01,06,25,5.00
2007,11,01,06,26,4.90
2007,11,01,06,27,4.90
2007,11,01,06,28,4.80
2007,11,01,06,29,4.80
2007,11,01,06,30,4.70
2007,11,01,06,31,4.60
2007,11,01,06,32,4.50
2007,11,01,06,33,4.50
2007,11,01,06,34,4.40
2007,11,01,06,35,4.40
2007,11,01,06,36,4.30
2007,11,01,06,37,4.30
2007,11,01,06,38,4.20
2007,11,01,06,39,4.20
2007,11,01,06,40,4.20
2007,11,01,06,41,4.20
2007,11,01,06,42,4.30
2007,11,01,06,43,4.30
2007,11,01,06,44,4.40
2007,11,01,06,45,4.40
2007,11,01,06,46,4.50
2007,11,01,06,47,4.60
2007,11,01,06,48,4.60
2007,11,01,06,49,4.60
2007,11,01,06,50,4.70
2007,11,01,06,51,4.70
2007,11,01,06,52,4.80
2007,11,01,06,53,4.80
2007,11,01,06,54,4.90
2007,11,01,06,55,4.90
2007,11,01,06,56,4.90
2007,11,01,06,57,4.90
2007,11,01,06,58,4.80
2007,11,01,06,59,4.80
2007,11,01,07,00,4.80
2007,11,01,07,01,4.80
2007,11,01,07,02,4.80
2007,11,01,07,03,4.80
2007,11,01,07,04,4.80
2007,11,01,07,05,4.80
2007,11,01,07,06,4.80
2007,11,01,07,07,4.80
2007,11,01,07,08,4.80
2007,11,01,07,09,4.80
2007,11,01,07,10,4.80
2007,11,01,07,11,4.80
2007,11,01,07,12,4.80
2007,11,01,07,13,4.90
2007,11,01,07,14,4.90
2007,11,01,07,15,4.90
2007,11,01,07,16,5.00
2007,11,01,07,17,5.00
2007,11,01,07,18,5.10
2007,11,01,07,19,5.10
2007,11,01,07,20,5.10
2007,11,01,07,21,5.10
2007,11,01,07,22,5.10
2007,11,01,07,23,5.10
2007,11,01,07,24,5.10
2007,11,01,07,25,5.10
2007,11,01,07,26,5.20
2007,11,01,07,27,5.20
2007,11,01,07,28,5.20
2007,11,01,07,29,5.20
2007,11,01,07,30,5.20
2007,11,01,07,31,5.20
2007,11,01,07,32,5.10
2007,11,01,07,33,5.10
2007,11,01,07,34,5.10
2007,11,01,07,35,5.10
2007,11,01,07,36,5.10
2007,11,01,07,37,5.10
2007,11,01,07,38,5.10
2007,11,01,07,39,5.10
2007,11,01,07,40,5.10
2007,11,01,07,41,5.10
2007,11,01,07,42,5.10
2007,11,01,07,43,5.10
2007,11,01,07,44,5.10
2007,11,01,07,45,5.10
2007,11,01,07,46,5.20
2007,11,01,07,47,5.20
2007,11,01,07,48,5.20
2007,11,01,07,49,5.20
2007,11,01,07,50,5.20
2007,11,01,07,51,5.10
2007,11,01,07,52,5.10
2007,11,01,07,53,5.10
2007,11,01,07,54,5.10
2007,11,01,07,55,5.10
2007,11,01,07,56,5.10
2007,11,01,07,57,5.00
2007,11,01,07,58,5.00
2007,11,01,07,59,4.90
2007,11,01,08,00,4.80
2007,11,01,08,01,4.80
2007,11,01,08,02,4.70
2007,11,01,08,03,4.60
2007,11,01,08,04,4.60
2007,11,01,08,05,4.50
2007,11,01,08,06,4.50
2007,11,01,08,07,4.40
2007,11,01,08,08,4.30
2007,11,01,08,09,4.30
2007,11,01,08,10,4.20
2007,11,01,08,11,4.10
2007,11,01,08,12,4.00
2007,11,01,08,13,4.00
2007,11,01,08,14,3.90
2007,11,01,08,15,3.90
2007,11,01,08,16,3.80
2007,11,01,08,17,3.80
2007,11,01,08,18,3.70
2007,11,01,08,19,3.70
2007,11,01,08,20,3.60
2007,11,01,08,21,3.60
2007,11,01,08,22,3.60
2007,11,01,08,23,3.60
2007,11,01,08,24,3.60
2007,11,01,08,25,3.70
2007,11,01,08,26,3.70
2007,11,01,08,27,3.80
2007,11,01,08,28,3.80
2007,11,01,08,29,3.80
2007,11,01,08,30,3.90
2007,11,01,08,31,4.00
2007,11,01,08,32,4.10
2007,11,01,08,33,4.10
2007,11,01,08,34,4.20
2007,11,01,08,35,4.30
2007,11,01,08,36,4.30
2007,11,01,08,37,4.40
2007,11,01,08,38,4.50
2007,11,01,08,39,4.50
2007,11,01,08,40,4.60
2007,11,01,08,41,4.70
2007,11,01,08,42,4.70
2007,11,01,08,43,4.80
2007,11,01,08,44,4.80
2007,11,01,08,45,4.90
2007,11,01,08,46,4.90
2007,11,01,08,47,5.00
2007,11,01,08,48,5.10
2007,11,01,08,49,5.10
2007,11,01,08,50,5.20
2007,11,01,08,51,5.20
2007,11,01,08,52,5.20
2007,11,01,08,53,5.30
2007,11,01,08,54,5.30
2007,11,01,08,55,5.40
2007,11,01,08,56,5.40
2007,11,01,08,57,5.40
2007,11,01,08,58,5.50
2007,11,01,08,59,5.50
2007,11,01,09,00,5.60
2007,11,01,09,01,5.60
2007,11,01,09,02,5.60
2007,11,01,09,03,5.70
2007,11,01,09,04,5.70
2007,11,01,09,05,5.70
2007,11,01,09,06,5.80
2007,11,01,09,07,5.80
2007,11,01,09,08,5.80
2007,11,01,09,09,5.90
2007,11,01,09,10,5.90
2007,11,01,09,11,5.90
2007,11,01,09,12,6.00
2007,11,01,09,13,6.00
2007,11,01,09,14,6.10
2007,11,01,09,15,6.10
2007,11,01,09,16,6.10
2007,11,01,09,17,6.20
2007,11,01,09,18,6.20
2007,11,01,09,19,6.20
2007,11,01,09,20,6.30
2007,11,01,09,21,6.30
2007,11,01,09,22,6.30
2007,11,01,09,23,6.40
2007,11,01,09,24,6.40
2007,11,01,09,25,6.50
2007,11,01,09,26,6.50
2007,11,01,09,27,6.50
2007,11,01,09,28,6.60
2007,11,01,09,29,6.60
2007,11,01,09,30,6.60
2007,11,01,09,31,6.60
2007,11,01,09,32,6.70
2007,11,01,09,33,6.70
2007,11,01,09,34,6.70
2007,11,01,09,35,6.70
2007,11,01,09,36,6.70
2007,11,01,09,37,6.70
2007,11,01,09,38,6.70
2007,11,01,09,39,6.70
2007,11,01,09,40,6.70
2007,11,01,09,41,6.60
2007,11,01,09,42,6.60
2007,11,01,09,43,6.60
2007,11,01,09,44,6.60
2007,11,01,09,45,6.60
2007,11,01,09,46,6.60
2007,11,01,09,47,6.70
2007,11,01,09,48,6.70
2007,11,01,09,49,6.70
2007,11,01,09,50,6.80
2007,11,01,09,51,6.80
2007,11,01,09,52,6.80
2007,11,01,09,53,6.90
2007,11,01,09,54,6.90
2007,11,01,09,55,6.90
2007,11,01,09,56,6.90
2007,11,01,09,57,7.00
2007,11,01,09,58,7.10
2007,11,01,09,59,7.10
2007,11,01,10,00,7.10
2007,11,01,10,01,7.20
2007,11,01,10,02,7.20
2007,11,01,10,03,7.20
2007,11,01,10,04,7.20
2007,11,01,10,05,7.20
2007,11,01,10,06,7.20
2007,11,01,10,07,7.20
2007,11,01,10,08,7.20
2007,11,01,10,09,7.30
2007,11,01,10,10,7.30
2007,11,01,10,11,7.30
2007,11,01,10,12,7.30
2007,11,01,10,13,7.30
2007,11,01,10,14,7.30
2007,11,01,10,15,7.30
2007,11,01,10,16,7.40
2007,11,01,10,17,7.40
2007,11,01,10,18,7.40
2007,11,01,10,19,7.50
2007,11,01,10,20,7.50
2007,11,01,10,21,7.60
2007,11,01,10,22,7.60
2007,11,01,10,23,7.60
2007,11,01,10,24,7.60
2007,11,01,10,25,7.70
2007,11,01,10,26,7.70
2007,11,01,10,27,7.70
2007,11,01,10,28,7.70
2007,11,01,10,29,7.70
2007,11,01,10,30,7.70
2007,11,01,10,31,7.70
2007,11,01,10,32,7.80
2007,11,01,10,33,7.80
2007,11,01,10,34,7.80
2007,11,01,10,35,7.80
2007,11,01,10,36,7.80
2007,11,01,10,37,7.80
2007,11,01,10,38,7.80
2007,11,01,10,39,7.90
2007,11,01,10,40,7.90
2007,11,01,10,41,7.90
2007,11,01,10,42,7.90
2007,11,01,10,43,7.90
2007,11,01,10,44,7.90
2007,11,01,10,45,7.90
2007,11,01,10,46,8.00
2007,11,01,10,47,8.00
2007,11,01,10,48,8.00
2007,11,01,10,49,8.10
2007,11,01,10,50,8.10
2007,11,01,10,51,8.10
2007,11,01,10,52,8.10
2007,11,01,10,53,8.10
2007,11,01,10,54,8.10
2007,11,01,10,55,8.10
2007,11,01,10,56,8.20
2007,11,01,10,57,8.20
2007,11,01,10,58,8.20
2007,11,01,10,59,8.30
2007,11,01,11,00,8.30
2007,11,01,11,01,8.30
2007,11,01,11,02,8.30
2007,11,01,11,03,8.30
2007,11,01,11,04,8.30
2007,11,01,11,05,8.30
2007,11,01,11,06,8.30
2007,11,01,11,07,8.30
2007,11,01,11,08,8.30
2007,11,01,11,09,8.30
2007,11,01,11,10,8.30
2007,11,01,11,11,8.30
2007,11,01,11,12,8.30
2007,11,01,11,13,8.30
2007,11,01,11,14,8.30
2007,11,01,11,15,8.30
2007,11,01,11,16,8.30
2007,11,01,11,17,8.30
2007,11,01,11,18,8.30
2007,11,01,11,19,8.30
2007,11,01,11,20,8.40
2007,11,01,11,21,8.40
2007,11,01,11,22,8.40
2007,11,01,11,23,8.40
2007,11,01,11,24,8.40
2007,11,01,11,25,8.40
2007,11,01,11,26,8.40
2007,11,01,11,27,8.40
2007,11,01,11,28,8.40
2007,11,01,11,29,8.40
2007,11,01,11,30,8.40
2007,11,01,11,31,8.40
2007,11,01,11,32,8.30
2007,11,01,11,33,8.30
2007,11,01,11,34,8.30
2007,11,01,11,35,8.30
2007,11,01,11,36,8.30
2007,11,01,11,37,8.40
2007,11,01,11,38,8.40
2007,11,01,11,39,8.40
2007,11,01,11,40,8.40
2007,11,01,11,41,8.40
2007,11,01,11,42,8.50
2007,11,01,11,43,8.50
2007,11,01,11,44,8.50
2007,11,01,11,45,8.60
2007,11,01,11,46,8.60
2007,11,01,11,47,8.60
2007,11,01,11,48,8.70
2007,11,01,11,49,8.70
2007,11,01,11,50,8.60
2007,11,01,11,51,8.60
2007,11,01,11,52,8.60
2007,11,01,11,53,8.60
2007,11,01,11,54,8.50
2007,11,01,11,55,8.40
2007,11,01,11,56,8.40
2007,11,01,11,57,8.40
2007,11,01,11,58,8.40
2007,11,01,11,59,8.40
2007,11,01,12,00,8.40
2007,11,01,12,01,8.40
2007,11,01,12,02,8.40
2007,11,01,12,03,8.40
2007,11,01,12,04,8.30
2007,11,01,12,05,8.30
2007,11,01,12,06,8.30
2007,11,01,12,07,8.30
2007,11,01,12,08,8.40
2007,11,01,12,09,8.40
2007,11,01,12,10,8.40
2007,11,01,12,11,8.40
2007,11,01,12,12,8.40
2007,11,01,12,13,8.30
2007,11,01,12,14,8.30
2007,11,01,12,15,8.30
2007,11,01,12,16,8.30
2007,11,01,12,17,8.30
2007,11,01,12,18,8.40
2007,11,01,12,19,8.40
2007,11,01,12,20,8.40
2007,11,01,12,21,8.40
2007,11,01,12,22,8.40
2007,11,01,12,23,8.40
2007,11,01,12,24,8.40
2007,11,01,12,25,8.40
2007,11,01,12,26,8.40
2007,11,01,12,27,8.40
2007,11,01,12,28,8.50
2007,11,01,12,29,8.50
2007,11,01,12,30,8.50
2007,11,01,12,31,8.50
2007,11,01,12,32,8.50
2007,11,01,12,33,8.60
2007,11,01,12,34,8.60
2007,11,01,12,35,8.60
2007,11,01,12,36,8.60
2007,11,01,12,37,8.60
2007,11,01,12,38,8.60
2007,11,01,12,39,8.60
2007,11,01,12,40,8.60
2007,11,01,12,41,8.70
2007,11,01,12,42,8.70
2007,11,01,12,43,8.70
2007,11,01,12,44,8.60
2007,11,01,12,45,8.60
2007,11,01,12,46,8.60
2007,11,01,12,47,8.60
2007,11,01,12,48,8.60
2007,11,01,12,49,8.60
2007,11,01,12,50,8.60
2007,11,01,12,51,8.60
2007,11,01,12,52,8.60
2007,11,01,12,53,8.60
2007,11,01,12,54,8.60
2007,11,01,12,55,8.70
2007,11,01,12,56,8.70
2007,11,01,12,57,8.70
2007,11,01,12,58,8.70
2007,11,01,12,59,8.70
2007,11,01,13,00,8.70
2007,11,01,13,01,8.70
2007,11,01,13,02,8.60
2007,11,01,13,03,8.60
2007,11,01,13,04,8.60
2007,11,01,13,05,8.70
2007,11,01,13,06,8.70
2007,11,01,13,07,8.70
2007,11,01,13,08,8.60
2007,11,01,13,09,8.60
2007,11,01,13,10,8.60
2007,11,01,13,11,8.60
2007,11,01,13,12,8.60
2007,11,01,13,13,8.50
2007,11,01,13,14,8.50
2007,11,01,13,15,8.50
2007,11,01,13,16,8.50
2007,11,01,13,17,8.50
2007,11,01,13,18,8.50
2007,11,01,13,19,8.60
2007,11,01,13,20,8.60
2007,11,01,13,21,8.70
2007,11,01,13,22,8.70
2007,11,01,13,23,8.80
2007,11,01,13,24,8.80
2007,11,01,13,25,8.70
2007,11,01,13,26,8.70
2007,11,01,13,27,8.70
2007,11,01,13,28,8.70
2007,11,01,13,29,8.80
2007,11,01,13,30,8.80
2007,11,01,13,31,8.90
2007,11,01,13,32,8.90
2007,11,01,13,33,8.90
2007,11,01,13,34,9.00
2007,11,01,13,35,9.00
2007,11,01,13,36,9.10
2007,11,01,13,37,9.10
2007,11,01,13,38,9.10
2007,11,01,13,39,9.10
2007,11,01,13,40,9.10
2007,11,01,13,41,9.10
2007,11,01,13,42,9.10
2007,11,01,13,43,9.10
2007,11,01,13,44,9.20
2007,11,01,13,45,9.20
2007,11,01,13,46,9.20
2007,11,01,13,47,9.30
2007,11,01,13,48,9.30
2007,11,01,13,49,9.40
2007,11,01,13,50,9.40
2007,11,01,13,51,9.40
2007,11,01,13,52,9.40
2007,11,01,13,53,9.40
2007,11,01,13,54,9.40
2007,11,01,13,55,9.30
2007,11,01,13,56,9.30
2007,11,01,13,57,9.30
2007,11,01,13,58,9.30
2007,11,01,13,59,9.30
2007,11,01,14,00,9.30
2007,11,01,14,01,9.30
2007,11,01,14,02,9.40
2007,11,01,14,03,9.40
2007,11,01,14,04,9.50
2007,11,01,14,05,9.50
2007,11,01,14,06,9.50
2007,11,01,14,07,9.50
2007,11,01,14,08,9.50
2007,11,01,14,09,9.50
2007,11,01,14,10,9.50
2007,11,01,14,11,9.50
2007,11,01,14,12,9.50
2007,11,01,14,13,9.50
2007,11,01,14,14,9.50
2007,11,01,14,15,9.50
2007,11,01,14,16,9.50
2007,11,01,14,17,9.50
2007,11,01,14,18,9.60
2007,11,01,14,19,9.60
2007,11,01,14,20,9.60
2007,11,01,14,21,9.60
2007,11,01,14,22,9.60
2007,11,01,14,23,9.70
2007,11,01,14,24,9.70
2007,11,01,14,25,9.70
2007,11,01,14,26,9.70
2007,11,01,14,27,9.60
2007,11,01,14,28,9.60
2007,11,01,14,29,9.60
2007,11,01,14,30,9.50
2007,11,01,14,31,9.50
2007,11,01,14,32,9.40
2007,11,01,14,33,9.40
2007,11,01,14,34,9.40
2007,11,01,14,35,9.50
2007,11,01,14,36,9.50
2007,11,01,14,37,9.60
2007,11,01,14,38,9.60
2007,11,01,14,39,9.50
2007,11,01,14,40,9.50
2007,11,01,14,41,9.40
2007,11,01,14,42,9.40
2007,11,01,14,43,9.40
2007,11,01,14,44,9.30
2007,11,01,14,45,9.30
2007,11,01,14,46,9.30
2007,11,01,14,47,9.30
2007,11,01,14,48,9.30
2007,11,01,14,49,9.30
2007,11,01,14,50,9.30
2007,11,01,14,51,9.30
2007,11,01,14,52,9.30
2007,11,01,14,53,9.40
2007,11,01,14,54,9.40
2007,11,01,14,55,9.50
2007,11,01,14,56,9.50
2007,11,01,14,57,9.50
2007,11,01,14,58,9.50
2007,11,01,14,59,9.60
2007,11,01,15,00,9.60
2007,11,01,15,01,9.70
2007,11,01,15,02,9.70
2007,11,01,15,03,9.80
2007,11,01,15,04,9.90
2007,11,01,15,05,9.90
2007,11,01,15,06,9.90
2007,11,01,15,07,9.90
2007,11,01,15,08,10.00
2007,11,01,15,09,10.00
2007,11,01,15,10,10.10
2007,11,01,15,11,10.10
2007,11,01,15,12,10.10
2007,11,01,15,13,10.10
2007,11,01,15,14,10.10
2007,11,01,15,15,10.10
2007,11,01,15,16,10.00
2007,11,01,15,17,10.00
2007,11,01,15,18,10.00
2007,11,01,15,19,10.00
2007,11,01,15,20,9.90
2007,11,01,15,21,9.90
2007,11,01,15,22,9.90
2007,11,01,15,23,9.90
2007,11,01,15,24,9.90
2007,11,01,15,25,9.90
2007,11,01,15,26,9.90
2007,11,01,15,27,9.90
2007,11,01,15,28,9.90
2007,11,01,15,29,9.90
2007,11,01,15,30,9.90
2007,11,01,15,31,9.90
2007,11,01,15,32,9.80
2007,11,01,15,33,9.80
2007,11,01,15,34,9.80
2007,11,01,15,35,9.80
2007,11,01,15,36,9.80
2007,11,01,15,37,9.80
2007,11,01,15,38,9.80
2007,11,01,15,39,9.80
2007,11,01,15,40,9.80
2007,11,01,15,41,9.80
2007,11,01,15,42,9.80
2007,11,01,15,43,9.80
2007,11,01,15,44,9.80
2007,11,01,15,45,9.80
2007,11,01,15,46,9.90
2007,11,01,15,47,9.90
2007,11,01,15,48,10.00
2007,11,01,15,49,10.00
2007,11,01,15,50,10.10
2007,11,01,15,51,10.00
2007,11,01,15,52,10.00
2007,11,01,15,53,9.90
2007,11,01,15,54,9.90
2007,11,01,15,55,9.90
2007,11,01,15,56,9.90
2007,11,01,15,57,9.90
2007,11,01,15,58,9.90
2007,11,01,15,59,9.90
2007,11,01,16,00,9.90
2007,11,01,16,01,9.90
2007,11,01,16,02,9.90
2007,11,01,16,03,9.90
2007,11,01,16,04,9.90
2007,11,01,16,05,9.90
2007,11,01,16,06,9.90
2007,11,01,16,07,9.90
2007,11,01,16,08,9.90
2007,11,01,16,09,9.90
2007,11,01,16,10,9.90
2007,11,01,16,11,9.90
2007,11,01,16,12,9.90
2007,11,01,16,13,9.90
2007,11,01,16,14,10.00
2007,11,01,16,15,10.00
2007,11,01,16,16,10.10
2007,11,01,16,17,10.10
2007,11,01,16,18,10.10
2007,11,01,16,19,10.10
2007,11,01,16,20,10.10
2007,11,01,16,21,10.00
2007,11,01,16,22,10.00
2007,11,01,16,23,9.90
2007,11,01,16,24,9.80
2007,11,01,16,25,9.80
2007,11,01,16,26,9.70
2007,11,01,16,27,9.70
2007,11,01,16,28,9.70
2007,11,01,16,29,9.70
2007,11,01,16,30,9.70
2007,11,01,16,31,9.70
2007,11,01,16,32,9.70
2007,11,01,16,33,9.80
2007,11,01,16,34,9.80
2007,11,01,16,35,9.80
2007,11,01,16,36,9.80
2007,11,01,16,37,9.80
2007,11,01,16,38,9.90
2007,11,01,16,39,9.90
2007,11,01,16,40,9.90
2007,11,01,16,41,9.80
2007,11,01,16,42,9.80
2007,11,01,16,43,9.80
2007,11,01,16,44,9.80
2007,11,01,16,45,9.80
2007,11,01,16,46,9.80
2007,11,01,16,47,9.80
2007,11,01,16,48,9.80
2007,11,01,16,49,9.80
2007,11,01,16,50,9.80
2007,11,01,16,51,9.80
2007,11,01,16,52,9.80
2007,11,01,16,53,9.80
2007,11,01,16,54,9.80
2007,11,01,16,55,9.80
2007,11,01,16,56,9.80
2007,11,01,16,57,9.70
2007,11,01,16,58,9.70
2007,11,01,16,59,9.70
2007,11,01,17,00,9.70
2007,11,01,17,01,9.70
2007,11,01,17,02,9.70
2007,11,01,17,03,9.70
2007,11,01,17,04,9.70
2007,11,01,17,05,9.70
2007,11,01,17,06,9.70
2007,11,01,17,07,9.70
2007,11,01,17,08,9.70
2007,11,01,17,09,9.70
2007,11,01,17,10,9.60
2007,11,01,17,11,9.60
2007,11,01,17,12,9.60
2007,11,01,17,13,9.50
2007,11,01,17,14,9.50
2007,11,01,17,15,9.50
2007,11,01,17,16,9.40
2007,11,01,17,17,9.40
2007,11,01,17,18,9.30
2007,11,01,17,19,9.30
2007,11,01,17,20,9.30
2007,11,01,17,21,9.20
2007,11,01,17,22,9.20
2007,11,01,17,23,9.10
2007,11,01,17,24,9.10
2007,11,01,17,25,9.00
2007,11,01,17,26,9.00
2007,11,01,17,27,8.90
2007,11,01,17,28,8.80
2007,11,01,17,29,8.80
2007,11,01,17,30,8.70
2007,11,01,17,31,8.60
2007,11,01,17,32,8.60
2007,11,01,17,33,8.50
2007,11,01,17,34,8.40
2007,11,01,17,35,8.40
2007,11,01,17,36,8.30
2007,11,01,17,37,8.20
2007,11,01,17,38,8.20
2007,11,01,17,39,8.10
2007,11,01,17,40,8.00
2007,11,01,17,41,8.00
2007,11,01,17,42,7.90
2007,11,01,17,43,7.80
2007,11,01,17,44,7.80
2007,11,01,17,45,7.70
2007,11,01,17,46,7.60
2007,11,01,17,47,7.50
2007,11,01,17,48,7.50
2007,11,01,17,49,7.40
2007,11,01,17,50,7.30
2007,11,01,17,51,7.20
2007,11,01,17,52,7.20
2007,11,01,17,53,7.20
2007,11,01,17,54,7.10
2007,11,01,17,55,7.00
2007,11,01,17,56,7.00
2007,11,01,17,57,6.90
2007,11,01,17,58,6.80
2007,11,01,17,59,6.70
2007,11,01,18,00,6.70
2007,11,01,18,01,6.60
2007,11,01,18,02,6.60
2007,11,01,18,03,6.50
2007,11,01,18,04,6.40
2007,11,01,18,05,6.30